| time (UTC) | temp C | wind direction | speed KPH | gust KPH | rain 1hr cm | rain 24hr cm | rain mn cm | humidity % | barometer mb |
| 20260503194005 | 17 | 215 | 8.0 | 38.6 | 0.00 | 0.00 | 0.00 | 35 | 1008.9 |
| 20260503193005 | 17 | 231 | 16.1 | 38.6 | 0.00 | 0.00 | 0.00 | 34 | 1009.1 |
| 20260503192505 | 17 | 258 | 11.3 | 38.6 | 0.00 | 0.00 | 0.00 | 34 | 1009.1 |
| 20260503192000 | 17 | 221 | 9.7 | 38.6 | 0.00 | 0.00 | 0.00 | 33 | 1009.2 |
| 20260503191504 | 17 | 232 | 12.9 | 33.8 | 0.00 | 0.00 | 0.00 | 33 | 1009.3 |
| 20260503191000 | 17 | 224 | 14.5 | 32.2 | 0.00 | 0.00 | 0.00 | 34 | 1009.3 |
| 20260503190504 | 17 | 277 | 9.7 | 38.6 | 0.00 | 0.00 | 0.00 | 34 | 1009.4 |
| 20260503190004 | 17 | 214 | 8.0 | 38.6 | 0.00 | 0.00 | 0.00 | 34 | 1009.4 |
| 20260503185503 | 17 | 256 | 9.7 | 33.8 | 0.00 | 0.00 | 0.00 | 36 | 1009.5 |
| 20260503185004 | 16 | 232 | 12.9 | 33.8 | 0.00 | 0.00 | 0.00 | 35 | 1009.6 |
| 20260503184504 | 16 | 208 | 14.5 | 32.2 | 0.00 | 0.00 | 0.00 | 36 | 1009.7 |
| 20260503183500 | 16 | 226 | 6.4 | 30.6 | 0.00 | 0.00 | 0.00 | 36 | 1009.8 |
| 20260503182500 | 16 | 262 | 9.7 | 27.4 | 0.00 | 0.00 | 0.00 | 36 | 1009.9 |
| 20260503182000 | 16 | 226 | 11.3 | 37.0 | 0.00 | 0.00 | 0.00 | 35 | 1010.1 |
| 20260503181505 | 16 | 264 | 9.7 | 37.0 | 0.00 | 0.00 | 0.00 | 34 | 1010.0 |
| 20260503181004 | 16 | 200 | 8.0 | 35.4 | 0.00 | 0.00 | 0.00 | 36 | 1010.1 |
| 20260503180504 | 16 | 236 | 6.4 | 22.5 | 0.00 | 0.00 | 0.00 | 38 | 1010.2 |
| 20260503180005 | 16 | 277 | 6.4 | 30.6 | 0.00 | 0.00 | 0.00 | 38 | 1010.3 |
| 20260503175504 | 16 | 227 | 9.7 | 30.6 | 0.00 | 0.00 | 0.00 | 37 | 1010.3 |
| 20260503174004 | 16 | 224 | 4.8 | 29.0 | 0.00 | 0.00 | 0.00 | 37 | 1010.6 |
| 20260503173504 | 16 | 222 | 6.4 | 25.7 | 0.00 | 0.00 | 0.00 | 38 | 1010.7 |
| 20260503173005 | 16 | 180 | 8.0 | 25.7 | 0.00 | 0.00 | 0.00 | 38 | 1010.6 |
| 20260503172504 | 15 | 286 | 6.4 | 43.5 | 0.00 | 0.00 | 0.00 | 38 | 1010.7 |
| 20260503172004 | 15 | 252 | 8.0 | 43.5 | 0.00 | 0.00 | 0.00 | 38 | 1010.9 |
| 20260503171505 | 15 | 302 | 9.7 | 32.2 | 0.00 | 0.00 | 0.00 | 38 | 1010.9 |
| 20260503171004 | 15 | 232 | 8.0 | 32.2 | 0.00 | 0.00 | 0.00 | 38 | 1011.1 |
| 20260503170504 | 15 | 246 | 8.0 | 27.4 | 0.00 | 0.00 | 0.00 | 38 | 1011.2 |
| 20260503151004 | 15 | 227 | 1.6 | 19.3 | 0.00 | 0.00 | 0.00 | 38 | 1011.9 |
| 20260503150504 | 15 | 307 | 1.6 | 19.3 | 0.00 | 0.00 | 0.00 | 37 | 1011.9 |
| 20260503131004 | 8 | 247 | 0.0 | 9.7 | 0.00 | 0.00 | 0.00 | 54 | 1012.5 |
| 20260503130504 | 7 | 192 | 0.0 | 9.7 | 0.00 | 0.00 | 0.00 | 54 | 1012.6 |
| 20260503110500 | 1 | 213 | 0.0 | 12.9 | 0.00 | 0.00 | 0.00 | 70 | 1013.1 |
| 20260503090459 | 1 | 228 | 0.0 | 0.0 | 0.00 | 0.00 | 0.00 | 68 | 1013.7 |
| 20260503081504 | 2 | 229 | 0.0 | 0.0 | 0.00 | 0.00 | 0.00 | 67 | 1014.0 |
| 20260503081000 | 2 | 229 | 0.0 | 0.0 | 0.00 | 0.00 | 0.00 | 67 | 1014.0 |
| 20260503080459 | 2 | 226 | 0.0 | 0.0 | 0.00 | 0.00 | 0.00 | 67 | 1014.0 |
| 20260503072459 | 2 | 222 | 0.0 | 0.0 | 0.00 | 0.00 | 0.00 | 68 | 1014.1 |
| 20260503071958 | 2 | 222 | 0.0 | 0.0 | 0.00 | 0.00 | 0.00 | 68 | 1014.1 |
| 20260503071459 | 2 | 222 | 0.0 | 0.0 | 0.00 | 0.00 | 0.00 | 68 | 1014.1 |
| 20260503071000 | 2 | 222 | 0.0 | 0.0 | 0.00 | 0.00 | 0.00 | 67 | 1014.1 |
| 20260503070503 | 2 | 222 | 0.0 | 0.0 | 0.00 | 0.00 | 0.00 | 67 | 1014.1 |
| 20260503054959 | 3 | 221 | 0.0 | 0.0 | 0.00 | 0.00 | 0.00 | 64 | 1014.6 |
| 20260503054504 | 3 | 217 | 0.0 | 0.0 | 0.00 | 0.00 | 0.00 | 64 | 1014.7 |
| 20260503053958 | 3 | 221 | 0.0 | 0.0 | 0.00 | 0.00 | 0.00 | 63 | 1014.7 |
| 20260503053004 | 3 | 227 | 0.0 | 1.6 | 0.00 | 0.00 | 0.00 | 63 | 1014.7 |
| 20260503051958 | 3 | 222 | 0.0 | 8.0 | 0.00 | 0.00 | 0.00 | 63 | 1014.8 |
| 20260503051500 | 3 | 221 | 0.0 | 8.0 | 0.00 | 0.00 | 0.00 | 63 | 1014.8 |
| 20260503050959 | 3 | 250 | 0.0 | 0.0 | 0.00 | 0.00 | 0.00 | 63 | 1014.8 |
| 20260503050459 | 3 | 228 | 0.0 | 0.0 | 0.00 | 0.00 | 0.00 | 62 | 1014.9 |
| 20260503050003 | 3 | 235 | 0.0 | 0.0 | 0.00 | 0.00 | 0.00 | 62 | 1014.8 |
| 20260503045504 | 3 | 234 | 0.0 | 0.0 | 0.00 | 0.00 | 0.00 | 62 | 1014.9 |
| 20260503045004 | 3 | 227 | 0.0 | 0.0 | 0.00 | 0.00 | 0.00 | 62 | 1014.9 |
| 20260503044504 | 3 | 227 | 0.0 | 0.0 | 0.00 | 0.00 | 0.00 | 62 | 1014.9 |
| 20260503044004 | 3 | 226 | 0.0 | 0.0 | 0.00 | 0.00 | 0.00 | 62 | 1014.9 |
| 20260503043504 | 3 | 226 | 0.0 | 0.0 | 0.00 | 0.00 | 0.00 | 62 | 1014.8 |
| 20260503043004 | 3 | 226 | 0.0 | 0.0 | 0.00 | 0.00 | 0.00 | 62 | 1014.8 |
| 20260503042504 | 3 | 226 | 0.0 | 0.0 | 0.00 | 0.00 | 0.00 | 62 | 1014.8 |
| 20260503042005 | 3 | 226 | 0.0 | 0.0 | 0.00 | 0.00 | 0.00 | 62 | 1014.8 |
| 20260503041505 | 3 | 226 | 0.0 | 0.0 | 0.00 | 0.00 | 0.00 | 62 | 1014.8 |
| 20260503041004 | 3 | 226 | 0.0 | 0.0 | 0.00 | 0.00 | 0.00 | 62 | 1014.9 |
| 20260503040008 | 3 | 225 | 0.0 | 0.0 | 0.00 | 0.00 | 0.00 | 62 | 1014.9 |
| 20260503035505 | 3 | 225 | 0.0 | 0.0 | 0.00 | 0.00 | 0.00 | 62 | 1014.9 |
| 20260503035004 | 3 | 225 | 0.0 | 0.0 | 0.00 | 0.00 | 0.00 | 63 | 1015.0 |
| 20260503034505 | 3 | 225 | 0.0 | 0.0 | 0.00 | 0.00 | 0.00 | 63 | 1014.9 |
| 20260503034004 | 3 | 225 | 0.0 | 0.0 | 0.00 | 0.00 | 0.00 | 63 | 1015.0 |
| 20260503033504 | 3 | 225 | 0.0 | 0.0 | 0.00 | 0.00 | 0.00 | 63 | 1015.0 |
| 20260503033007 | 3 | 225 | 0.0 | 0.0 | 0.00 | 0.00 | 0.00 | 63 | 1015.0 |
| 20260503032004 | 3 | 225 | 0.0 | 0.0 | 0.00 | 0.00 | 0.00 | 63 | 1015.1 |
| 20260503031004 | 3 | 225 | 0.0 | 0.0 | 0.00 | 0.00 | 0.00 | 62 | 1015.1 |
| 20260503030504 | 3 | 225 | 0.0 | 0.0 | 0.00 | 0.00 | 0.00 | 61 | 1015.1 |
| 20260503030004 | 4 | 225 | 0.0 | 0.0 | 0.00 | 0.00 | 0.00 | 61 | 1015.1 |
| 20260503025504 | 4 | 225 | 0.0 | 0.0 | 0.00 | 0.00 | 0.00 | 62 | 1015.2 |
| 20260503024504 | 4 | 225 | 0.0 | 0.0 | 0.00 | 0.00 | 0.00 | 61 | 1015.2 |
| 20260503023504 | 4 | 225 | 0.0 | 0.0 | 0.00 | 0.00 | 0.00 | 60 | 1015.4 |
| 20260503023004 | 4 | 225 | 0.0 | 0.0 | 0.00 | 0.00 | 0.00 | 60 | 1015.4 |
| 20260503022504 | 5 | 225 | 0.0 | 0.0 | 0.00 | 0.00 | 0.00 | 60 | 1015.4 |
| 20260503022004 | 5 | 225 | 0.0 | 0.0 | 0.00 | 0.00 | 0.00 | 59 | 1015.4 |
| 20260503021505 | 5 | 225 | 0.0 | 0.0 | 0.00 | 0.00 | 0.00 | 59 | 1015.4 |
| 20260503021004 | 5 | 225 | 0.0 | 0.0 | 0.00 | 0.00 | 0.00 | 58 | 1015.3 |
| 20260503020504 | 5 | 225 | 0.0 | 0.0 | 0.00 | 0.00 | 0.00 | 57 | 1015.3 |
| 20260503020004 | 5 | 225 | 0.0 | 0.0 | 0.00 | 0.00 | 0.00 | 57 | 1015.3 |
| 20260503015504 | 5 | 225 | 0.0 | 0.0 | 0.00 | 0.00 | 0.00 | 57 | 1015.3 |
| 20260503015004 | 5 | 225 | 0.0 | 0.0 | 0.00 | 0.00 | 0.00 | 57 | 1015.3 |
| 20260503014504 | 5 | 225 | 0.0 | 0.0 | 0.00 | 0.00 | 0.00 | 56 | 1015.3 |
| 20260503014004 | 5 | 225 | 0.0 | 0.0 | 0.00 | 0.00 | 0.00 | 56 | 1015.3 |
| 20260503013503 | 6 | 225 | 0.0 | 0.0 | 0.00 | 0.00 | 0.00 | 55 | 1015.2 |
| 20260503013005 | 6 | 225 | 0.0 | 0.0 | 0.00 | 0.00 | 0.00 | 54 | 1015.3 |
| 20260503012504 | 6 | 225 | 0.0 | 0.0 | 0.00 | 0.00 | 0.00 | 53 | 1015.2 |
| 20260503012004 | 6 | 225 | 0.0 | 0.0 | 0.00 | 0.00 | 0.00 | 52 | 1015.2 |
| 20260503011505 | 6 | 225 | 0.0 | 0.0 | 0.00 | 0.00 | 0.00 | 52 | 1015.2 |
| 20260503011004 | 6 | 225 | 0.0 | 0.0 | 0.00 | 0.00 | 0.00 | 49 | 1015.2 |
| 20260503010504 | 6 | 225 | 0.0 | 0.0 | 0.00 | 0.00 | 0.00 | 49 | 1015.2 |
| 20260503005503 | 7 | 225 | 0.0 | 0.0 | 0.00 | 0.00 | 0.00 | 48 | 1015.2 |
| 20260503005004 | 7 | 225 | 0.0 | 0.0 | 0.00 | 0.00 | 0.00 | 47 | 1015.2 |
| 20260503004505 | 7 | 225 | 0.0 | 0.0 | 0.00 | 0.00 | 0.00 | 46 | 1015.2 |
| 20260503004004 | 7 | 225 | 0.0 | 0.0 | 0.00 | 0.00 | 0.00 | 45 | 1015.2 |
| 20260503002004 | 7 | 225 | 0.0 | 0.0 | 0.00 | 0.00 | 0.00 | 44 | 1015.1 |
| 20260503001505 | 8 | 225 | 0.0 | 0.0 | 0.00 | 0.00 | 0.00 | 44 | 1015.1 |
| 20260503001004 | 8 | 225 | 0.0 | 0.0 | 0.00 | 0.00 | 0.00 | 43 | 1015.0 |
| 20260503000504 | 8 | 225 | 0.0 | 0.0 | 0.00 | 0.00 | 0.00 | 44 | 1015.1 |
| 20260503000006 | 8 | 225 | 0.0 | 0.0 | 0.00 | 0.00 | 0.00 | 42 | 1015.0 |
| 20260502235505 | 8 | 244 | 0.0 | 0.0 | 0.00 | 0.00 | 0.00 | 42 | 1015.1 |
| 20260502235004 | 8 | 244 | 0.0 | 0.0 | 0.00 | 0.00 | 0.00 | 42 | 1015.0 |
| 20260502234504 | 8 | 285 | 0.0 | 0.0 | 0.00 | 0.00 | 0.00 | 42 | 1015.0 |
| 20260502234004 | 8 | 296 | 0.0 | 0.0 | 0.00 | 0.00 | 0.00 | 43 | 1015.0 |
| 20260502233004 | 8 | 293 | 0.0 | 4.8 | 0.00 | 0.00 | 0.00 | 42 | 1015.2 |
| 20260502232504 | 8 | 305 | 0.0 | 4.8 | 0.00 | 0.00 | 0.00 | 43 | 1015.2 |
| 20260502232004 | 8 | 221 | 0.0 | 0.0 | 0.00 | 0.00 | 0.00 | 44 | 1015.2 |
| 20260502231504 | 8 | 218 | 0.0 | 0.0 | 0.00 | 0.00 | 0.00 | 43 | 1015.2 |
| 20260502231005 | 8 | 227 | 0.0 | 0.0 | 0.00 | 0.00 | 0.00 | 42 | 1015.2 |
| 20260502230504 | 8 | 307 | 0.0 | 0.0 | 0.00 | 0.00 | 0.00 | 43 | 1015.2 |
| 20260502230004 | 8 | 250 | 0.0 | 3.2 | 0.00 | 0.00 | 0.00 | 43 | 1015.2 |
| 20260502225504 | 8 | 244 | 0.0 | 3.2 | 0.00 | 0.00 | 0.00 | 42 | 1015.3 |
| 20260502225004 | 8 | 266 | 0.0 | 1.6 | 0.00 | 0.00 | 0.00 | 43 | 1015.3 |
| 20260502224504 | 8 | 246 | 0.0 | 1.6 | 0.00 | 0.00 | 0.00 | 42 | 1015.3 |
| 20260502221004 | 9 | 279 | 0.0 | 0.0 | 0.00 | 0.00 | 0.00 | 41 | 1015.3 |
| 20260502220005 | 9 | 296 | 0.0 | 4.8 | 0.00 | 0.00 | 0.00 | 41 | 1015.3 |
| 20260502215505 | 9 | 206 | 0.0 | 4.8 | 0.00 | 0.00 | 0.00 | 41 | 1015.3 |
| 20260502215005 | 9 | 244 | 0.0 | 4.8 | 0.00 | 0.00 | 0.00 | 41 | 1015.4 |
| 20260502214004 | 8 | 311 | 0.0 | 4.8 | 0.00 | 0.00 | 0.00 | 43 | 1015.4 |
| 20260502213504 | 8 | 336 | 0.0 | 6.4 | 0.00 | 0.00 | 0.00 | 43 | 1015.3 |
| 20260502212504 | 8 | 279 | 0.0 | 1.6 | 0.00 | 0.00 | 0.00 | 42 | 1015.4 |
| 20260502212005 | 8 | 245 | 0.0 | 1.6 | 0.00 | 0.00 | 0.00 | 42 | 1015.3 |
| 20260502211504 | 8 | 290 | 0.0 | 8.0 | 0.00 | 0.00 | 0.00 | 43 | 1015.4 |
| 20260502211005 | 8 | 264 | 0.0 | 8.0 | 0.00 | 0.00 | 0.00 | 43 | 1015.4 |
| 20260502210504 | 8 | 333 | 0.0 | 4.8 | 0.00 | 0.00 | 0.00 | 44 | 1015.5 |
| 20260502210005 | 8 | 296 | 0.0 | 1.6 | 0.00 | 0.00 | 0.00 | 44 | 1015.5 |
| 20260502205504 | 8 | 225 | 0.0 | 1.6 | 0.00 | 0.00 | 0.00 | 44 | 1015.4 |
| 20260502205004 | 8 | 291 | 0.0 | 1.6 | 0.00 | 0.00 | 0.00 | 42 | 1015.5 |
| 20260502204505 | 8 | 310 | 0.0 | 3.2 | 0.00 | 0.00 | 0.00 | 43 | 1015.5 |
| 20260502204003 | 8 | 236 | 0.0 | 3.2 | 0.00 | 0.00 | 0.00 | 43 | 1015.5 |
| 20260502203005 | 8 | 265 | 0.0 | 1.6 | 0.00 | 0.00 | 0.00 | 43 | 1015.6 |
| 20260502202503 | 8 | 218 | 0.0 | 6.4 | 0.00 | 0.00 | 0.00 | 42 | 1015.7 |
| 20260502202000 | 8 | 240 | 0.0 | 4.8 | 0.00 | 0.00 | 0.00 | 43 | 1015.8 |
| 20260502201504 | 8 | 244 | 0.0 | 1.6 | 0.00 | 0.00 | 0.00 | 43 | 1015.8 |
| 20260502201004 | 8 | 280 | 0.0 | 4.8 | 0.00 | 0.00 | 0.00 | 42 | 1015.8 |
| 20260502200500 | 8 | 278 | 0.0 | 3.2 | 0.00 | 0.00 | 0.00 | 42 | 1015.9 |
| 20260502200005 | 8 | 302 | 0.0 | 4.8 | 0.00 | 0.00 | 0.00 | 43 | 1015.9 |
| 20260502195504 | 8 | 323 | 0.0 | 4.8 | 0.00 | 0.00 | 0.00 | 41 | 1015.9 |
| 20260502195004 | 8 | 253 | 0.0 | 0.0 | 0.00 | 0.00 | 0.00 | 42 | 1016.0 |
| 20260502194505 | 8 | 281 | 0.0 | 16.1 | 0.00 | 0.00 | 0.00 | 42 | 1016.1 |